Tracking 19177 objects as of 24-May-2018
HD Live streaming from Space Station
objects crossing your sky now

GORIZONT 16

Track GORIZONT 16 now!
GORIZONT 16 is classified as:


NORAD ID: 19397
Int'l Code: 1988-071A
Perigee: 35,809.2 km
Apogee: 35,938.7 km
Inclination: 14.7 °
Period: 1,440.2 minutes
Semi major axis: 42244 km
RCS: 8.2065 m2 (large)
Launch date: August 18, 1988
Source: Commonwealth of Independent States (former USSR) (CIS)
Launch site: TYURATAM MISSILE AND SPACE COMPLEX (TTMTR)
aabbcc
Your satellite tracking list
Your tracking list is empty




NASA's NSSDC Master Catalog

Two Line Element Set (TLE):
1 19397U 88071A   18143.44752876 -.00000346 +00000-0 +00000-0 0  9997
2 19397 014.7352 354.2519 0015331 000.0203 188.4797 00.99986312108774
Source of the keplerian elements: AFSPC